Погода в Грачеве

Россия / Ростовская область     49°24′40″N   41°31′09″E
темп.,
°C
ветер,
м/с
пор.,
м/с
влажн.,
%
обл.,
%
осадки,
мм/ч
давл.,
гПа
погр.,
м
24 октября, вс
вс2400:00+10з4876100 0.0 1017248
03:00+7зсз48626 0.0 1018162
06:00+5зсз33685 0.0 101945
09:00+7зсз4658100 0.0 1020405
12:00+10зсз5643100 0.0 10201116
15:00+10сз5540100 0.0 10191289
18:00+8зсз3450100 0.0 102096
21:00+6зсз375695 0.0 1020167
25 октября, пн
пн2500:00+4сз38655 0.0 1021190
03:00+3сз510785 0.0 1022317
06:00+1сз610856 0.0 1025410
09:00+2ссз797133 0.0 1027733
12:00+5ссз78455 0.0 10281185
15:00+6с78360 0.0 10281318
18:00+3с374750 0.0 1031128
21:00+1ссз225169 0.0 103225
26 октября, вт
вт2600:000ссз22555 0.0 103315
03:00−1сз22585 0.0 103410
06:00−1сз12590 0.0 103410
09:00+2з22450 0.0 1034200
12:00+7з33335 0.0 1033795
15:00+8з332813 0.0 1031939
18:00+4зюз22387 0.0 103214
21:00+3юз33435 0.0 103221
27 октября, ср
ср2700:00+2юз33455 0.0 103220
03:00+1ююз33475 0.0 103222
06:000ююз33470 0.0 103122
09:00+4ююз35350 0.0 1031212
12:00+9ююз45250 0.0 1029702
15:00+10ю45230 0.0 1027862
18:00+6ююв44340 0.0 102749
21:00+3ю48400 0.0 1026129
28 октября, чт
чт2800:00+2ю35505 0.0 102664
03:00+2ю335978 0.0 102528
06:00+2ю3365100 0.0 102433
09:00+4ю2360100 0.0 1025155
12:00+9ю114797 0.0 1024542
15:00+10ссв11400 0.0 1023845
18:00+6св11510 0.0 102410
21:00+4ссв11550 0.0 102510